Lanai City, HI

11:53 PM HST on August 23, 2016 (GMT -1000)
Lanai City

Weather History for PHNY - February, 2013

Change the Weather History Date:

Saturday, February 9, 2013

  Actual Average Record
Temperature  
Mean Temperature 68 °F -  
Max Temperature 77 °F 75 °F 84 °F (2001)
Min Temperature 59 °F 57 °F 52 °F (1981)
Cooling Degree Days 3    
Growing Degree Days 18 (Base 50)    
Moisture  
Dew Point 61 °F    
Average Humidity 77    
Maximum Humidity 96    
Minimum Humidity 55    
Precipitation  
Precipitation 0.00 in - - ()
Sea Level Pressure  
Sea Level Pressure 30.09 in    
Wind  
Wind Speed 12 mph (NE)    
Max Wind Speed 24 mph    
Max Gust Speed 36 mph    
Visibility 10 miles    
Events      
Averages and records for this station are not official NWS values.
T = Trace of Precipitation, MM = Missing Value Source: NWS Daily Summary

Daily Weather History Graph

Daily Weather History Graph

Search for Another Location

Airport or City:

Trip Planner

Search our weather history database for the weather conditions in past years. The results will help you decide how hot, cold, wet, or windy it might be!

Date:

Astronomy

Feb. 09, 2013 Rise Set
Actual Time 7:00 AM HST 6:23 PM HST
Civil Twilight 6:38 AM HST 6:46 PM HST
Nautical Twilight 6:11 AM HST 7:12 PM HST
Astronomical Twilight 5:45 AM HST 7:38 PM HST
Moon 6:22 AM HST (2/9) 6:12 PM HST (2/9)
Length of Visible Light 12h 08m
Length of Day
11h 22m
Waning Crescent, 0% of the Moon is Illuminated
Feb 9
Waning Crescent
Feb 9
New
Feb 17
First Quarter
Feb 25
Full
Mar 4
Last Quarter

Hourly Weather History & Observations

Time (HST) Temp. Dew Point Humidity Pressure Visibility Wind Dir Wind Speed Gust Speed Precip Events Conditions
12:56 AM 63.0 °F 61.0 °F 93% 30.09 in 10.0 mi SE 4.6 mph - N/A   Clear
1:56 AM 61.0 °F 59.0 °F 93% 30.09 in 10.0 mi ENE 4.6 mph - N/A   Clear
2:56 AM 61.0 °F 59.0 °F 93% 30.07 in 10.0 mi NE 4.6 mph - N/A   Clear
3:56 AM 59.0 °F 57.9 °F 96% 30.07 in 10.0 mi ENE 6.9 mph - N/A   Clear
4:56 AM 61.0 °F 59.9 °F 96% 30.07 in 10.0 mi ENE 8.1 mph - N/A   Clear
5:56 AM 63.9 °F 61.9 °F 93% 30.08 in 10.0 mi ENE 6.9 mph - N/A   Clear
6:56 AM 63.9 °F 61.9 °F 93% 30.10 in 10.0 mi ENE 10.4 mph - N/A   Clear
7:56 AM 66.9 °F 61.9 °F 84% 30.12 in 10.0 mi ENE 12.7 mph - N/A   Clear
8:56 AM 70.9 °F 63.0 °F 76% 30.12 in 10.0 mi East 10.4 mph - N/A   Clear
9:56 AM 72.9 °F 61.9 °F 68% 30.12 in 10.0 mi NE 18.4 mph - N/A   Clear
10:56 AM 75.9 °F 61.9 °F 62% 30.12 in 10.0 mi NNE 17.3 mph - N/A   Clear
11:56 AM 77.0 °F 61.0 °F 58% 30.09 in 10.0 mi NE 23.0 mph 31.1 mph N/A   Clear
12:56 PM 77.0 °F 59.9 °F 55% 30.07 in 10.0 mi NE 21.9 mph 27.6 mph N/A   Clear
1:56 PM 77.0 °F 59.9 °F 55% 30.05 in 10.0 mi NE 24.2 mph 28.8 mph N/A   Clear
2:56 PM 75.9 °F 61.0 °F 60% 30.04 in 10.0 mi NNE 21.9 mph 28.8 mph N/A   Clear
3:56 PM 74.8 °F 61.0 °F 62% 30.04 in 10.0 mi NE 20.7 mph 26.5 mph N/A   Clear
4:56 PM 72.9 °F 61.0 °F 66% 30.06 in 10.0 mi NE 21.9 mph - N/A   Clear
5:56 PM 70.0 °F 61.0 °F 73% 30.07 in 10.0 mi NNE 21.9 mph 26.5 mph N/A   Clear
6:56 PM 66.9 °F 61.0 °F 81% 30.09 in 10.0 mi NE 24.2 mph 29.9 mph N/A   Clear
7:56 PM 66.9 °F 59.9 °F 78% 30.11 in 10.0 mi NE 23.0 mph 35.7 mph N/A   Clear
8:56 PM 65.8 °F 59.9 °F 81% 30.12 in 10.0 mi NE 20.7 mph - N/A   Partly Cloudy
9:56 PM 66.9 °F 61.0 °F 81% 30.13 in 10.0 mi NE 21.9 mph 29.9 mph N/A   Clear
10:56 PM 65.8 °F 59.9 °F 81% 30.12 in 10.0 mi NE 18.4 mph 28.8 mph N/A   Clear
11:56 PM 65.8 °F 59.9 °F 81% 30.11 in 10.0 mi NNE 20.7 mph 26.5 mph N/A   Clear